Skip Page Navigation
NASA JPL Caltech
NASA Logo - Jet Propulsion Laboratory + View the NASA Portal
+ Near-Earth Object (NEO) Program
Search JPL
JPL Home Earth Solar System Stars & Galaxies Technology
JPL Solar System Dynamics
BODIES ORBITS EPHEMERIDES TOOLS PHYSICAL DATA DISCOVERY FAQ SITE MAP
JPL Small-Body Database Browser
Search: [ help ]  
134363 (1994 VG3)
Classification: Main-belt Asteroid          SPK-ID: 2134363
Ephemeris | Orbit Diagram | Orbital Elements | Physical Parameters | Discovery Circumstances | Close-Approach Data ]

[ show orbit diagram ]
Orbital Elements at Epoch 2457000.5 (2014-Dec-09.0) TDB
Reference: JPL 8 (heliocentric ecliptic J2000)
 Element Value Uncertainty (1-sigma)   Units 
e .3228990203788663 1.7268e-07  
a 2.550811199473753 3.2391e-08 AU
q 1.727156761992237 4.5879e-07 AU
i 8.380655962913421 7.0737e-06 deg
node 44.26518533386505 7.4922e-05 deg
peri 326.9454589043186 7.8283e-05 deg
M 349.6075737637101 3.6315e-05 deg
tp 2457043.456644472179
(2015-Jan-20.95664447)
0.00015087 JED
period 1488.044433357007
4.07
2.8344e-05
7.76e-08
d
yr
n .2419282596204773 4.6081e-09 deg/d
Q 3.374465636955268 4.285e-08 AU
  Orbit Determination Parameters
   # obs. used (total)      178  
   data-arc span      7292 days (19.96 yr)  
   first obs. used      1994-10-26  
   last obs. used      2014-10-13  
   planetary ephem.      DE431  
   SB-pert. ephem.      SB431-BIG16  
   condition code      0  
   fit RMS      .61548  
   data source      ORB  
   producer      Otto Matic  
   solution date      2014-Nov-10 16:28:04  

Additional Information
 Earth MOID = .734945 AU 
 T_jup = 3.351 
[ show covariance matrix ]

Ephemeris | Orbit Diagram | Orbital Elements | Physical Parameters | Discovery Circumstances | Close-Approach Data ]

Physical Parameter Table
Parameter Symbol Value Units Sigma Reference Notes
absolute magnitude H 16.2 mag n/a MPO302679  

134363 (1994 VG3)          Discovered 1994-Nov-07 by Ueda, S., Kaneda, H. at Kushiro (399)
Reference: 20060907/Numbers.arcLast Updated: 2006-09-10

[ show close-approach data ]
Alternate Designations
 1994 VG3 = 1998 UR33 
Ephemeris | Orbit Diagram | Orbital Elements | Physical Parameters | Discovery Circumstances | Close-Approach Data ]
ABOUT SSD CREDITS/AWARDS PRIVACY/COPYRIGHT GLOSSARY LINKS
FirstGov 2014-Dec-18 23:04 UT
(server date/time)  
NASA Home Page
Site Manager:   Donald K. Yeomans
Webmaster  Alan B. Chamberlin